Altus AFB, OK

10:46 PM CDT on August 23, 2017 (GMT -0500)
Altus Air Force Base

Weather History for KLTS - March, 2014

Change the Weather History Date:

Wednesday, March 5, 2014

  Actual Average Record
Temperature  
Mean Temperature 41 °F -  
Max Temperature 50 °F 58 °F 91 °F (2009)
Min Temperature 32 °F 33 °F 16 °F (2015)
Degree Days  
Heating Degree Days 24    
Moisture  
Dew Point 35 °F    
Average Humidity 87    
Maximum Humidity 100    
Minimum Humidity 56    
Precipitation  
Precipitation 0.03 in - - ()
Sea Level Pressure  
Sea Level Pressure 30.11 in    
Wind  
Wind Speed 12 mph (NNE)    
Max Wind Speed 20 mph    
Max Gust Speed 21 mph    
Visibility 9 miles    
Events Rain    
Averages and records for this station are not official NWS values.
T = Trace of Precipitation, MM = Missing Value Source: NWS Daily Summary

Daily Weather History Graph

Daily Weather History Graph

Search for Another Location

Airport or City:

Trip Planner

Search our weather history database for the weather conditions in past years. The results will help you decide how hot, cold, wet, or windy it might be!

Date:

Astronomy

Mar. 05, 2014 Rise Set
Actual Time 7:01 AM CST 6:36 PM CST
Civil Twilight 6:35 AM CST 7:01 PM CST
Nautical Twilight 6:06 AM CST 7:30 PM CST
Astronomical Twilight 5:37 AM CST 8:00 PM CST
Moon 9:40 AM CST (3/5) 11:33 PM CST (3/5)
Length of Visible Light 12h 25m
Length of Day
11h 35m
Waxing Crescent, 23% of the Moon is Illuminated
Mar 5
Waxing Crescent
Mar 8
First Quarter
Mar 16
Full
Mar 23
Last Quarter
Mar 30
New

Hourly Weather History & Observations

Time (CST) Temp. Windchill Dew Point Humidity Pressure Visibility Wind Dir Wind Speed Gust Speed Precip Events Conditions
12:58 AM 37.4 °F 29.8 °F 26.8 °F 66% 29.96 in 10.0 mi ESE 11.5 mph - N/A   Clear
1:58 AM 34.7 °F 27.5 °F 27.0 °F 73% 29.96 in 10.0 mi ESE 9.2 mph - N/A   Clear
2:58 AM 34.5 °F 25.7 °F 27.7 °F 76% 29.93 in 10.0 mi ESE 12.7 mph - N/A   Partly Cloudy
3:58 AM 33.8 °F 25.3 °F 28.4 °F 81% 29.93 in 10.0 mi ESE 11.5 mph - N/A   Clear
4:53 AM 32.0 °F 23.6 °F 30.2 °F 93% 29.91 in 10.0 mi East 10.4 mph - N/A   Clear
4:58 AM 32.9 °F 24.1 °F 29.5 °F 87% 29.92 in 9.0 mi ESE 11.5 mph - N/A   Clear
5:43 AM 32.0 °F 23.0 °F 32.0 °F 100% 29.92 in 8.0 mi ESE 11.5 mph - N/A   Clear
5:58 AM 32.5 °F 23.7 °F 30.7 °F 93% 29.94 in 8.0 mi ESE 11.5 mph - N/A   Partly Cloudy
6:58 AM 33.6 °F 24.6 °F 32.0 °F 94% 29.97 in 8.0 mi ESE 12.7 mph - N/A   Mostly Cloudy
7:58 AM 34.3 °F 27.0 °F 32.2 °F 92% 30.00 in 7.0 mi ESE 9.2 mph - N/A   Overcast
8:50 AM 35.6 °F 29.2 °F 32.0 °F 87% 30.06 in 9.0 mi North 8.1 mph - N/A   Partly Cloudy
8:58 AM 35.6 °F 29.9 °F 32.5 °F 89% 30.08 in 9.0 mi NNE 6.9 mph - 0.00 in Rain Light Rain
9:05 AM 35.6 °F 29.2 °F 32.0 °F 87% 30.06 in 9.0 mi NE 8.1 mph - N/A   Partly Cloudy
9:28 AM 37.4 °F 32.1 °F 32.0 °F 81% 30.06 in 10.0 mi NE 6.9 mph - N/A   Light Drizzle
9:40 AM 37.4 °F 32.1 °F 32.0 °F 81% 30.07 in 10.0 mi NE 6.9 mph - N/A   Mostly Cloudy
9:58 AM 39.0 °F 32.8 °F 39.0 °F 100% 30.09 in 10.0 mi NNE 9.2 mph - 0.00 in   Mostly Cloudy
10:58 AM 42.1 °F 37.1 °F 36.9 °F 82% 30.09 in 10.0 mi NNE 8.1 mph - N/A   Mostly Cloudy
11:58 AM 46.6 °F - 35.8 °F 66% 30.11 in 10.0 mi NNE 6.9 mph - N/A   Scattered Clouds
12:37 PM 50.0 °F - 35.6 °F 58% 30.09 in 10.0 mi North 15.0 mph - N/A   Mostly Cloudy
12:58 PM 47.8 °F - 33.8 °F 58% 30.11 in 10.0 mi North 15.0 mph - N/A   Mostly Cloudy
1:58 PM 49.1 °F - 33.8 °F 56% 30.10 in 10.0 mi NNE 15.0 mph - N/A   Mostly Cloudy
2:21 PM 48.2 °F - 33.8 °F 58% 30.08 in 10.0 mi North 17.3 mph - N/A   Light Drizzle
2:56 PM 46.4 °F 40.1 °F 35.6 °F 66% 30.09 in 10.0 mi NNE 15.0 mph - N/A Rain Light Rain
2:58 PM 46.4 °F 40.1 °F 37.4 °F 71% 30.11 in 10.0 mi North 15.0 mph - 0.00 in Rain Light Rain
3:03 PM 44.6 °F 37.8 °F 37.4 °F 76% 30.09 in 10.0 mi North 15.0 mph - N/A Rain Light Rain
3:26 PM 44.6 °F 37.8 °F 35.6 °F 71% 30.10 in 10.0 mi North 15.0 mph - N/A Rain Light Rain
3:41 PM 42.8 °F 34.8 °F 39.2 °F 87% 30.10 in 9.0 mi North 17.3 mph - N/A Rain Rain
3:58 PM 42.8 °F 35.4 °F 40.1 °F 90% 30.13 in 9.0 mi North 15.0 mph - 0.01 in Rain Light Rain
4:18 PM 41.0 °F 32.5 °F 39.2 °F 93% 30.12 in 10.0 mi North 17.3 mph - N/A Rain Light Rain
4:33 PM 41.0 °F 32.5 °F 39.2 °F 93% 30.12 in 10.0 mi North 17.3 mph - N/A   Light Drizzle
4:35 PM 41.0 °F 32.2 °F 37.4 °F 87% 30.12 in 10.0 mi North 18.4 mph - N/A   Mostly Cloudy
4:39 PM 41.0 °F 32.8 °F 37.4 °F 87% 30.13 in 10.0 mi North 16.1 mph - N/A   Light Drizzle
4:54 PM 41.0 °F 33.1 °F 39.2 °F 93% 30.14 in 10.0 mi North 15.0 mph - N/A   Light Drizzle
4:58 PM 40.3 °F 33.0 °F 38.5 °F 93% 30.17 in 9.0 mi North 12.7 mph - 0.01 in   Light Drizzle
5:02 PM 39.2 °F 31.2 °F 37.4 °F 93% 30.14 in 10.0 mi North 13.8 mph - N/A   Overcast
5:04 PM 39.2 °F 30.8 °F 37.4 °F 93% 30.14 in 10.0 mi North 15.0 mph - N/A   Light Drizzle
5:44 PM 39.2 °F 30.2 °F 37.4 °F 93% 30.15 in 6.0 mi North 17.3 mph - N/A Rain Rain
5:54 PM 37.4 °F 28.2 °F 37.4 °F 100% 30.16 in 7.0 mi North 16.1 mph - N/A Rain Light Rain
5:58 PM 37.9 °F 29.6 °F 37.8 °F 99% 30.19 in 7.0 mi North 13.8 mph - 0.01 in Rain Light Rain
6:08 PM 37.4 °F 27.2 °F 37.4 °F 100% 30.16 in 7.0 mi NNE 19.6 mph - N/A   Light Drizzle
6:11 PM 37.4 °F 27.8 °F 37.4 °F 100% 30.16 in 8.0 mi NNE 17.3 mph 20.7 mph N/A   Overcast
6:16 PM 37.4 °F 28.2 °F 37.4 °F 100% 30.17 in 8.0 mi NNE 16.1 mph - N/A   Mostly Cloudy
6:58 PM 35.6 °F 26.6 °F 35.6 °F 100% 30.22 in 9.0 mi North 13.8 mph - 0.00 in   Mostly Cloudy
7:03 PM 35.6 °F 27.1 °F 35.6 °F 100% 30.19 in 9.0 mi North 12.7 mph - N/A   Scattered Clouds
7:13 PM 35.6 °F 28.0 °F 35.6 °F 100% 30.20 in 9.0 mi North 10.4 mph - N/A   Mostly Cloudy
7:58 PM 36.7 °F 28.0 °F 36.5 °F 99% 30.24 in 10.0 mi North 13.8 mph - N/A   Overcast
8:08 PM 37.4 °F 29.8 °F 35.6 °F 93% 30.22 in 10.0 mi North 11.5 mph - N/A   Overcast
8:23 PM 37.4 °F 31.4 °F 35.6 °F 93% 30.22 in 9.0 mi North 8.1 mph - N/A   Overcast
8:58 PM 37.0 °F 29.8 °F 36.9 °F 99% 30.27 in 8.0 mi North 10.4 mph - N/A   Overcast
9:08 PM 37.4 °F 29.8 °F 37.4 °F 100% 30.24 in 9.0 mi North 11.5 mph - N/A   Overcast
9:58 PM 36.9 °F 29.6 °F 36.5 °F 99% 30.28 in 9.0 mi North 10.4 mph - N/A   Overcast
10:58 PM 36.3 °F 30.1 °F 35.4 °F 97% 30.28 in 10.0 mi North 8.1 mph - N/A   Overcast
11:28 PM 33.8 °F 26.4 °F 33.8 °F 100% 30.26 in 8.0 mi North 9.2 mph - N/A   Scattered Clouds
11:58 PM 32.9 °F 25.3 °F 32.7 °F 99% 30.27 in 7.0 mi North 9.2 mph - N/A   Clear